Regional Weather Roundup
Issued by NWS

Home | Current Version | Previous Version | Text Only | Print | Product List | Glossary Off
Versions: 1 2 3 4 5 6 7 8 9 10 11 12 13 14 15 16 17 18 19 20 21 22 23 24 25 26 27 28 29 30 31 32 33 34 35 36 37 38 39 40 41 42 43 44 45 46 47 48 49 50

000
ASUS44 KMEG 021400
RWRTN
TENNESSEE HOURLY STATE WEATHER ROUNDUP
NATIONAL WEATHER SERVICE MEMPHIS TN
900 AM CDT WED SEP 02 2015

TNZ002-004-019-021-049-052-054-088>092-021500-
WEST TENNESSEE

CITY           SKY/WX    TMP DP  RH WIND       PRES   REMARKS
MEMPHIS INTL   PTSUNNY   82  71  69 E3        30.11F
NWS MEMPHIS      N/A     77 N/A N/A MISG        N/A
JACKSON        PTSUNNY   76  73  91 CALM      30.13R
DYERSBURG      SUNNY     79  73  83 CALM      30.13S
UNION CITY     SUNNY     81  73  78 CALM      30.11
PARIS          SUNNY     79  70  73 CALM      30.14
LEXINGTON      SUNNY     77  72  83 CALM      30.12
$$

TNZ008-025-027-028-033-062-065-066-021500-
NORTH MIDDLE TENNESSEE

CITY           SKY/WX    TMP DP  RH WIND       PRES   REMARKS
NASHVILLE      CLOUDY    80  70  71 CALM      30.15R
CLARKSVILLE    MOSUNNY   75  69  81 CALM      30.14S HAZE
COOKEVILLE     SUNNY     73  70  88 CALM      30.15
CROSSVILLE     PTSUNNY   76  69  79 CALM      30.21S
$$

TNZ061-075-076-078-094-096-097-021500-
SOUTH MIDDLE TENNESSEE

CITY           SKY/WX    TMP DP  RH WIND       PRES   REMARKS
FAYETTEVILLE   SUNNY     73  70  88 CALM      30.15S
TULLAHOMA      MOSUNNY   75  70  83 CALM      30.16
WINCHESTER     SUNNY     75  70  83 CALM      30.15
MCMINNVILLE    SUNNY     73  73 100 E3        30.16
COLUMBIA       SUNNY     75  75 100 E3        30.13
SHELBYVILLE    PTSUNNY   75  72  88 CALM      30.15
$$

TNZ017-018-042-046-047-021500-
NORTHEAST TENNESSEE

CITY           SKY/WX    TMP DP  RH WIND       PRES   REMARKS
TRI CITIES     MOSUNNY   75  66  73 CALM      30.18F
ELIZABETHTON   SUNNY     73  64  73 CALM      30.19S
$$

TNZ012-013-036-069-073-074-021500-
CENTRAL EAST TENNESSEE

CITY           SKY/WX    TMP DP  RH WIND       PRES   REMARKS
KNOXVILLE      PTSUNNY   75  70  84 CALM      30.15S
OAK RIDGE      PTSUNNY   76  68  76 CALM      30.17S
GATLINBURG     SUNNY     79  66  65 CALM      30.15
$$

TNZ083-085-099-021500-
SOUTHEAST TENNESSEE

CITY           SKY/WX    TMP DP  RH WIND       PRES   REMARKS
CHATTANOOGA    PTSUNNY   78  70  76 CALM      30.14S
$$

SKY/WX REPORTED AS FAIR MEANS FEW OR NO CLOUDS BELOW
12 THOUSAND FEET.




USA.gov is the U.S. government's official web portal to all federal, state and local government web resources and services.